Location: Lynch Observatory
(39.9540°N, 75.1861°W)
Time: 23:56:02
(UTC-04:00)

DOVE 4 - Pass Details

Date: 25 April 2024
Orbit: 582 x 778 km, 97.7° (Epoch: 27 May)

Event Time Altitude Azimuth Distance (km) Brightness Sun altitude
Rises 23:07:08 0° 5° (N) 2,915 ? -30.5°
Reaches altitude 10° 23:09:21 10° 359° (N) 2,031 ? -30.7°
Enters shadow 23:12:32 39° 325° (NW) 991 ? -31.0°
